Location: Newark
(26.8167°N, 79.5167°E)
Time: 13:14:05
(UTC+00:00)

Hubble Space Telescope - Visible Passes

Search period start: 27 September 2020 00:00
Search period end: 07 October 2020 00:00
Orbit: 536 x 540 km, 28.5° (Epoch: 26 September)

Date Brightness Start Highest point End Pass type
(mag) Time Alt. Az. Time Alt. Az. Time Alt. Az.
27 Sep 0.7 23:23:44 33° W 23:25:30 76° N 23:29:37 10° E visible
28 Sep 0.8 23:13:41 45° WNW 23:14:48 71° N 23:18:55 10° E visible
29 Sep 0.7 23:03:37 60° NW 23:04:08 69° N 23:08:14 10° E visible
30 Sep 0.9 22:53:34 68° NNE 22:53:34 68° NNE 22:57:32 10° E visible
01 Oct 1.4 22:43:32 54° ENE 22:43:32 54° ENE 22:46:52 10° E visible
02 Oct 2.1 22:33:31 38° E 22:33:31 38° E 22:36:11 10° E visible
03 Oct 1.1 00:09:12 10° W 00:13:14 55° SSW 00:17:16 10° ESE visible
03 Oct 2.8 22:23:33 27° E 22:23:33 27° E 22:25:30 10° E visible
03 Oct 1.3 23:58:54 12° W 00:02:29 44° SSW 00:06:25 10° SE visible
04 Oct 3.4 22:13:38 18° E 22:13:38 18° E 22:14:48 10° E visible
04 Oct 1.6 23:48:59 16° W 23:51:43 35° SSW 23:55:30 10° SE visible
05 Oct 3.9 22:03:47 12° ESE 22:03:47 12° ESE 22:04:05 10° ESE visible
05 Oct 1.9 23:39:07 20° WSW 23:40:56 28° SSW 23:44:30 10° SE visible
06 Oct 2.2 23:29:19 21° SW 23:30:09 22° SSW 23:33:24 10° SSE visible
